This demonstration page uses our WeatherBlox Daily Observations layout. Learn more.

Left ArrowRight Arrow

39.29038, -76.61219

Hourly Observations for August 30, 2015

Temp ( °F °C ) Dew Point ( °F °C ) Humidity (%) Winds ( mph kmh ) Pressure ( in mb ) Visibility ( mi km ) Precip ( " mm )
12:54 am 00:54 undefined 74 23.3 63 17.2 69 69 undefined N/A 30.12 1020 N/A 0.00 0.00
1:54 am 01:54 undefined 73 22.8 63 17.2 71 71 undefined N/A 30.10 1019 N/A 0.00 0.00
2:54 am 02:54 undefined 72 22.2 63 17.2 73 73 undefined N/A 30.10 1019 N/A 0.00 0.00
3:54 am 03:54 undefined 71 21.7 63 17.2 76 76 undefined N/A 30.10 1019 N/A 0.00 0.00
4:54 am 04:54 undefined 71 21.7 63 17.2 76 76 undefined N/A 30.10 1019 N/A 0.00 0.00
5:54 am 05:54 undefined 70 21.1 63 17.2 79 79 undefined N/A 30.10 1019 N/A 0.00 0.00
6:54 am 06:54 undefined 70 21.1 64 17.8 82 82 undefined N/A 30.11 1020 N/A 0.00 0.00
7:54 am 07:54 undefined 71 21.7 63 17.2 76 76 undefined N/A 30.12 1020 N/A 0.00 0.00
8:54 am 08:54 undefined 74 23.3 63 17.2 69 69 undefined N/A 30.13 1020 N/A 0.00 0.00
9:54 am 09:54 undefined 77 25 64 17.8 64 64 undefined N/A 30.13 1020 N/A 0.00 0.00
10:54 am 10:54 undefined 80 26.7 65 18.3 60 60 undefined N/A 30.13 1020 N/A 0.00 0.00
11:54 am 11:54 undefined 83 28.3 66 18.9 57 57 undefined N/A 30.12 1020 N/A 0.00 0.00
12:54 pm 12:54 undefined 83 28.3 67 19.4 59 59 undefined N/A 30.11 1020 N/A 0.00 0.00
1:54 pm 13:54 undefined 84 28.9 67 19.4 57 57 undefined N/A 30.09 1019 N/A 0.00 0.00
2:54 pm 14:54 undefined 85 29.4 68 20 57 57 undefined N/A 30.08 1019 N/A 0.00 0.00
3:54 pm 15:54 undefined 87 30.6 67 19.4 51 51 undefined N/A 30.05 1018 N/A 0.00 0.00
4:54 pm 16:54 undefined 86 30 65 18.3 49 49 undefined N/A 30.05 1018 N/A 0.00 0.00
5:54 pm 17:54 undefined 86 30 65 18.3 49 49 undefined N/A 30.05 1018 N/A 0.00 0.00
6:54 pm 18:54 undefined 85 29.4 66 18.9 53 53 undefined N/A 30.05 1018 N/A 0.00 0.00
7:54 pm 19:54 undefined 83 28.3 66 18.9 57 57 undefined N/A 30.06 1018 N/A 0.00 0.00
8:54 pm 20:54 undefined 82 27.8 66 18.9 58 58 undefined N/A 30.06 1018 N/A 0.00 0.00
9:54 pm 21:54 undefined 81 27.2 66 18.9 61 61 undefined N/A 30.08 1019 N/A 0.00 0.00
10:54 pm 22:54 undefined 81 27.2 66 18.9 61 61 undefined N/A 30.07 1018 N/A 0.00 0.00
11:54 pm 23:54 undefined 80 26.7 66 18.9 62 62 undefined N/A 30.08 1019 N/A 0.00 0.00

Powered by AerisWeather